www.pogodaiklimat.ru

Погода и климат >> Архив погоды >> Канада >> Baker Lake Climate


ПОГОДА в Baker Lake Climate

  • Прогноз погоды в Baker Lake Climate
  • Монитор погоды в Baker Lake Climate
  • Климат города

АРХИВ ПОГОДЫ в Baker Lake Climate

Время (UTC), дата Ветер
(напр.,м/с)
 
Видим.   Явления Облачность Т
(С)
Тd
(С)
f
(%)
Тe
(С)
Тes
(С)
Комфортность P
(гПа)
Po
(гПа)
Тmin
(С)
Tmax
(С)
R
(мм)
R24
(мм)
S
(см)
18 12.11 Ю 2 н/о н/о -20.6 -23.2 80 -25 -25 1023.5 1016.6 -25.3 -20.6
21 12.11 СЗ 5 н/о н/о -18.9 -21.9 77 -29 -29 1023.0 1016.1
00 13.11 СЗ 5 н/о {осадки} н/о -23.4 -26.5 76 -34 -34 опасность
обморожения
1023.7 1016.7 -25.3 -18.4 0.2
03 13.11 С 6 н/о н/о -23.3 -26.5 75 -35 -35 опасность
обморожения
1023.3 1016.3
06 13.11 С 7 н/о н/о -24.6 -27.7 75 -38 -38 опасность
обморожения
1024.2 1017.2 -25.4 -18.4
09 13.11 С 8 н/о н/о -23.4 -26.4 76 -37 -37 опасность
обморожения
1024.5 1017.6
12 13.11 С 9 н/о н/о -24.5 -27.7 75 -39 -39 опасность
обморожения
1025.2 1018.2 -25.4 -18.4 4
15 13.11 С 11 н/о н/о -24.1 -27.4 74 -40 -40 опасность
обморожения
1024.8 1017.8
18 13.11 С 9 н/о н/о -23.8 -27.1 74 -38 -38 опасность
обморожения
1025.8 1018.8 -25.4 -22.9
21 13.11 С 8 н/о н/о -23.4 -26.6 75 -37 -37 опасность
обморожения
1026.0 1019.0
00 14.11 С 5 н/о н/о -23.1 -26.3 75 -33 -33 опасность
обморожения
1026.2 1019.2 -25.2 -22.0
03 14.11 СЗ 6 н/о н/о -24.0 -26.7 78 -36 -36 опасность
обморожения
1025.2 1018.2
06 14.11 СЗ 3 н/о н/о -22.3 -25.4 76 -31 -31 опасность
обморожения
1024.8 1017.8 -25.6 -21.9 16
09 14.11 СЗ 4 н/о н/о -21.2 -24.4 75 -30 -30 1023.7 1016.7
12 14.11 С 5 н/о н/о -26.5 -30.0 72 -38 -38 опасность
обморожения
1023.4 1016.4 -26.5 -21.9 4
15 14.11 С 9 н/о н/о -28.0 -31.6 71 -43 -43 опасность
обморожения
1023.4 1016.4
18 14.11 С 8 н/о н/о -28.3 -32.0 70 -43 -43 опасность
обморожения
1023.3 1016.3 -28.5 -20.6
21 14.11 С 7 н/о н/о -29.0 -32.8 70 -43 -43 опасность
обморожения
1023.5 1016.5
00 15.11 С 5 н/о н/о -30.0 -33.8 69 -43 -43 опасность
обморожения
1025.2 1018.1 -30.1 -25.8
03 15.11 С 7 н/о н/о -29.8 -33.7 69 -44 -44 опасность
обморожения
1025.2 1018.1
06 15.11 СЗ 6 н/о н/о -28.3 -31.9 71 -42 -42 опасность
обморожения
1026.0 1018.9 -30.3 -20.6 3
09 15.11 СЗ 5 н/о н/о -30.2 -34.4 67 -43 -43 опасность
обморожения
1026.7 1019.6
12 15.11 С 7 н/о н/о -29.6 -33.7 67 -44 -44 опасность
обморожения
1027.2 1020.1 -30.5 -20.6 4
15 15.11 СЗ 6 н/о н/о -31.0 -35.1 67 -45 -45 опасность
обморожения
1027.7 1020.6
18 15.11 СЗ 9 н/о н/о -30.2 -34.3 67 -46 -46 опасность
обморожения
1027.4 1020.3 -31.4 -27.9
21 15.11 ЮЗ 2 н/о н/о -29.8 -33.8 68 -37 -37 опасность
обморожения
1027.8 1020.7
03 16.11 З 2 н/о н/о -29.2 -33.1 69 -37 -37 опасность
обморожения
1026.2 1019.1
06 16.11 СЗ 2 н/о н/о -29.1 -32.8 70 -35 -35 опасность
обморожения
1025.2 1018.1 19
09 16.11 СЗ 1 н/о н/о -30.3 -34.1 69 -32 -32 опасность
обморожения
1024.4 1017.3
12 16.11 С 5 н/о н/о -31.2 -34.9 70 -44 -44 опасность
обморожения
1024.0 1016.6 -32.1 4
15 16.11 СЗ 2 н/о н/о -31.4 -35.2 69 -39 -39 опасность
обморожения
1023.6 1016.5
18 16.11 СЗ 2 н/о н/о -30.0 -33.8 69 -38 -38 опасность
обморожения
1022.9 1015.8 -28.5
21 16.11 СЗ 1 н/о н/о -30.7 -34.4 70 -35 -35 опасность
обморожения
1022.1 1015.0
00 17.11 С 5 н/о н/о -31.2 -35.0 69 -44 -44 опасность
обморожения
1020.9 1013.8 -32.3 -29.0
03 17.11 СЗ 3 н/о н/о -31.3 -35.2 68 -40 -40 опасность
обморожения
1018.9 1011.8
06 17.11 штиль 0 н/о н/о -30.9 -34.7 69 -31 -31 опасность
обморожения
1016.9 1009.8 -33.1 -28.5
09 17.11 В 2 н/о н/о -29.4 -33.0 71 -35 -35 опасность
обморожения
1015.6 1008.6 0.2
12 17.11 Ю 1 н/о {осадки} н/о -28.9 -32.4 72 -30 -30 1014.9 1007.9 -33.1 -28.5 0.2 4
15 17.11 С 3 н/о н/о -30.8 -34.5 70 -40 -40 опасность
обморожения
1015.0 1007.9
18 17.11 С 4 н/о н/о -30.4 -34.2 69 -41 -41 опасность
обморожения
1015.6 1008.6 -33.1 -28.4
21 17.11 С 8 н/о н/о -29.7 -33.4 70 -45 -45 опасность
обморожения
1016.1 1009.1
00 18.11 С 12 н/о н/о -28.2 -31.7 72 -46 -46 опасность
обморожения
1016.5 1009.5 -31.7 -27.9 0.2
03 18.11 С 9 н/о н/о -29.3 -33.0 70 -45 -45 опасность
обморожения
1018.5 1011.4
06 18.11 С 13 н/о н/о -29.7 -33.6 69 -48 -48 опасность
обморожения
1018.5 1011.4 -31.7 -27.9 5
09 18.11 С 9 н/о н/о -30.9 -35.1 66 -48 -48 опасность
обморожения
1020.1 1013.0
12 18.11 СЗ 9 н/о н/о -31.8 -36.2 65 -48 -48 опасность
обморожения
1021.2 1014.1 -32.0 -27.9 4
15 18.11 СЗ 3 н/о н/о -32.1 -36.4 65 -42 -42 опасность
обморожения
1021.9 1014.8
18 18.11 СЗ 7 н/о н/о -30.5 -34.9 65 -45 -45 опасность
обморожения
1022.2 1015.1 -32.8 -29.7
21 18.11 С 7 н/о н/о -29.7 -34.0 66 -44 -44 опасность
обморожения
1023.1 1016.0
00 19.11 З 1 н/о н/о -30.7 -34.9 66 -35 -35 опасность
обморожения
1024.1 1017.0 -32.8 -29.3
03 19.11 СЗ 3 н/о н/о -31.2 -35.4 66 -40 -40 опасность
обморожения
1023.7 1016.6
06 19.11 СЗ 4 н/о н/о -30.5 -34.6 67 -41 -41 опасность
обморожения
1023.7 1016.6 -32.8 -29.3 8
09 19.11 СЗ 2 н/о н/о -31.6 -35.5 68 -39 -39 опасность
обморожения
1024.5 1017.4
12 19.11 С 2 н/о н/о -31.7 -35.7 68 -40 -40 опасность
обморожения
1024.7 1017.6 -33.3 -29.3 4
15 19.11 С 3 н/о н/о -33.3 -37.4 66 -43 -43 опасность
обморожения
1024.8 1017.7

 

Местоположение метеостанции Baker Lake Climate (Канада): широта 64.32 долгота -96.00 высота над уровнем моря 51 м.

В архиве по умолчанию представлена погода в Baker Lake Climate за последнюю неделю. Архивные данные за месяц целиком и за предыдущие месяцы, начиная с января 2011 года, Вы можете получить, выбрав интересующий диапазон дат из раскрывающегося списка и нажав кнопку "Ввод!".


*Определитесь, кто Вы:
робот инопланетянин человек

Внимание! Время в таблицах - всемирное. Для получения местного времени необходимо прибавить поправку, которая в Baker Lake Climate равна -6 ч.

Смотрите также архив погоды в соседних городах и на ближайших метеорологических станциях:

Погода в Baker Lake Airport (Канада) (4 км)
Погода в Back River MAPS (Канада) (197 км)
Погода в Rankin Inlet (Канада) (255 км)
Погода в Dubawnt Lake (Канада) (305 км)
Погода в Robertson Lake (Канада) (316 км)
Погода в Wager Bay (Канада) (353 км)
Погода в Arviat Climate (Канада) (372 км)
Погода в Arviat (Канада) (372 км)
Погода в Arviat Airport (Канада) (372 км)
Погода в Hanbury River ARS (Канада) (454 км)

Пояснения к столбцам:

Ветер - указаны скорость ветра в м/с - средняя за 10 мин, порывы в срок и между сроками (в фигурных скобках) и направление, откуда дует ветер: С - северный, СВ - северо-восточный, В - восточный, ЮВ - юго-восточный, Ю - южный, ЮЗ - юго-западный, З - западный, СЗ - северо-западный.
Видимость - горизонтальная дальность видимости в метрах или километрах. При видимости от 1 до 10 км при отсутствии осадков обычно наблюдается дымка, при ухудшении видимости до 1 км и менее - туман. В сухую погоду видимость может ухудшаться дымом, пылью или мглою.
Явления - указаны атмосферные явления, наблюдавшиеся в срок или в последний час перед сроком; фигурными скобками обозначены явления, наблюдавшиеся между сроками (за 1-3 часа до срока); квадратными скобками обозначены град или гололедные отложения с указанием их диаметра в мм.
Облачность - указаны через наклонную черту общая и нижняя облачность в баллах и высота нижней границы облаков в метрах; квадратными скобками обозначены формы облаков: Ci - перистые, Cs - перисто-слоистые, Cc - перисто-кучевые, Ac - высококучевые, As - высокослоистые, Sc - слоисто-кучевые, Ns - слоисто-дождевые, Cu - кучевые, Cb - кучево-дождевые. Подробнее классификацию облаков см. в Атласе облаков (PDF).
T - Температура воздуха - температура, измеренная на высоте 2 м над землей.
Td - Температура точки росы - температура, при понижении до которой содержащийся в воздухе водяной пар достигнет насыщения.
f - Относительная влажность воздуха - влажноcть воздуха, измеренная на высоте 2 м над землей.
Te - Эффективная температура - температура, которую ощущает одетый по сезону человек в тени. Характеристика душности погоды. При расчете учитывается влияние влажности воздуха и скорости ветра на теплоощущения человека.
Tes - Эффективная температура на солнце - температура, которую ощущает человек, с поправкой на солнечный нагрев. Характеристика знойности погоды. Зависит от высоты солнца над горизонтом, облачности и скорости ветра. Ночью, в пасмурную погоду, а также при ветре 12 м/с и более поправка равна нулю.
P - Атмосферное давление - приведенное к уровню моря атмосферное давление.
Po - Атмосферное давление - измеренное на уровне метеостанции атмосферное давление.
Tmin - Минимальная температура - минимум температуры воздуха на высоте 2 м над землей.
Tmax - Максимальная температура - максимум температуры воздуха на высоте 2 м над землей.
R - Количество осадков - Количество выпавших осадков за период времени, мм. При наведении курсора мыши на число - период времени, за который выпало указанное количество осадков.
R24 - Количество осадков - Количество выпавших осадков за 24 часа, мм.
S - Снежный покров - Высота снежного покрова, см. При наведении курсора мыши на число - состояние снежного покрова и степень покрытия местности в баллах.